DH9SB-6 Weather Reports


time (UTC)temp
C
wind
direction
speed
KPH
gust
KPH
rain 1hr
cm
rain 24hr
cm
rain mn
cm
humidity
%
barometer
mb
20260507095257 11 0.0 0.0 0.00 2.54 1.32 82
20260507094229 11 0.0 0.0 0.00 2.54 1.32 80
20260507093254 11 0.0 0.0 0.00 2.54 1.32 80
20260507092232 11 0.0 0.0 0.00 2.54 1.32 81
20260507091254 11 0.0 1.6 0.00 2.54 1.32 80
20260507090230 11 0.0 0.0 0.00 2.54 1.32 80
20260507085259 12 0.0 3.2 0.00 2.54 1.32 83
20260507084229 11 0.0 0.0 0.00 2.54 1.32 84
20260507083253 11 0.0 1.6 0.00 2.54 1.32 88
20260507082231 11 225 0.0 6.4 0.00 2.54 1.32 92
20260507081344 10 315 0.0 4.8 0.00 2.54 1.32 94
20260507080234 10 342 0.0 8.0 0.00 2.54 1.32 96
20260507075254 10 0.0 3.2 0.00 2.54 1.32 96
20260507074230 10 0.0 3.2 0.00 2.54 1.32 97
20260507073253 10 0.0 0.0 0.00 2.54 1.32 98
20260507072230 10 0.0 0.0 0.00 2.54 1.32 98
20260507071255 10 0.0 0.0 0.00 2.54 1.32 99
20260507070230 10 0.0 1.6 0.00 2.54 1.32 99
20260507065254 10 0.0 0.0 0.00 2.54 1.32 99
20260507064231 10 0.0 0.0 0.00 2.54 1.32 99
20260507063742 10 0.0 0.0 0.00 2.54 1.32 99
20260507062806 10 0.0 1.6 0.00 2.54 1.32 99
20260507061744 10 0.0 0.0 0.00 2.54 1.32 99
20260507060806 10 0.0 0.0 0.00 2.54 1.32 99
20260507060232 10 0.0 0.0 0.00 2.54 1.32 99
20260507055254 10 0.0 0.0 0.03 2.54 1.32 99
20260507054232 10 0.0 0.0 0.03 2.54 1.32 99
20260507053342 9 0.0 1.6 0.05 2.54 1.32 99
20260507052230 9 0.0 0.0 0.05 2.54 1.32 99
20260507051259 9 0.0 0.0 0.05 2.54 1.32 99
20260507050318 9 0.0 1.6 0.10 2.54 1.32 99
20260507045254 9 0.0 0.0 0.05 2.51 1.30 99
20260507044233 9 0.0 0.0 0.05 2.51 1.30 99
20260507043254 9 0.0 3.2 0.05 2.49 1.27 99
20260507042232 9 0.0 1.6 0.05 2.51 1.27 99
20260507041253 9 0.0 0.0 0.05 2.51 1.27 99
20260507040230 9 0.0 0.0 0.03 2.49 1.22 99
20260507035254 9 0.0 1.6 0.03 2.49 1.22 99
20260507034231 9 0.0 0.0 0.03 2.49 1.22 99
20260507033256 9 0.0 3.2 0.00 2.46 1.19 99
20260507032230 9 0.0 1.6 0.03 2.46 1.19 99
20260507031254 9 0.0 3.2 0.03 2.46 1.19 99
20260507030230 10 0.0 1.6 0.03 2.46 1.19 99
20260507025253 10 315 0.0 6.4 0.05 2.46 1.19 99
20260507024231 10 0.0 3.2 0.10 2.46 1.19 99
20260507023254 10 0.0 1.6 0.10 2.46 1.19 99
20260507022230 10 0.0 3.2 0.10 2.44 1.17 99
20260507021257 10 0.0 0.0 0.10 2.44 1.17 99
20260507020230 10 0.0 0.0 0.13 2.44 1.17 99
20260507015256 10 0.0 0.0 0.13 2.39 1.14 99
20260507014232 10 0.0 0.0 0.10 2.36 1.12 99
20260507013254 10 0.0 0.0 0.10 2.36 1.12 99
20260507012230 10 0.0 1.6 0.10 2.34 1.09 99
20260507011254 10 0.0 0.0 0.15 2.34 1.09 99
20260507010229 10 0.0 0.0 0.18 2.31 1.04 99
20260507005254 10 0.0 0.0 0.20 2.29 1.02 98
20260507004230 10 0.0 0.0 0.28 2.29 1.02 98
20260507003256 10 0.0 0.0 0.33 2.29 1.02 98
20260507002233 10 0.0 0.0 0.38 2.26 0.99 98
20260507001259 10 0.0 0.0 0.43 2.18 0.94 97
20260507000231 10 0.0 1.6 0.46 2.13 0.86 97
20260506235254 10 0.0 1.6 0.46 2.06 0.81 97
20260506234234 10 0.0 0.0 0.48 2.01 0.76 96
20260506233254 10 0.0 3.2 0.48 1.96 0.69 96
20260506232231 10 0.0 1.6 0.43 1.85 0.61 96
20260506231255 10 0.0 1.6 0.43 1.78 0.51 96
20260506230230 10 0.0 1.6 0.38 1.68 0.43 96
20260506225254 10 0.0 3.2 0.38 1.63 0.36 96
20260506224230 10 0.0 1.6 0.33 1.52 0.28 96
20260506223750 11 225 0.0 4.8 0.33 1.50 0.23 96
20260506222806 11 0.0 3.2 0.33 1.47 0.20 96
20260506221743 11 0.0 1.6 0.28 1.37 0.13 96
20260506220807 11 0.0 0.0 0.28 1.32 0.05 96
20260506215742 11 0.0 0.0 0.28 1.27 1.27 96
20260506214807 11 0.0 0.0 0.28 1.19 1.19 96
20260506213743 11 0.0 4.8 0.30 1.17 1.17 96
20260506212806 11 0.0 0.0 0.28 1.14 1.14 96
20260506211743 11 0.0 1.6 0.30 1.12 1.12 96
20260506210811 12 0.0 0.0 0.33 1.04 1.04 96
20260506205742 12 0.0 0.0 0.36 0.99 0.99 96
20260506204808 12 0.0 0.0 0.43 0.94 0.94 96
20260506203743 12 0.0 0.0 0.38 0.86 0.86 95
20260506202806 12 0.0 0.0 0.38 0.86 0.86 95
20260506201743 12 0.0 1.6 0.36 0.81 0.81 95
20260506200808 12 0.0 0.0 0.30 0.76 0.71 94
20260506195743 12 0.0 0.0 0.20 0.71 0.64 91
20260506194806 12 0.0 0.0 0.10 0.61 0.51 91
20260506193742 12 0.0 0.0 0.10 0.56 0.48 91
20260506192810 12 0.0 0.0 0.10 0.56 0.48 90
20260506191743 12 0.0 0.0 0.05 0.53 0.46 93
20260506190807 12 0.0 0.0 0.03 0.53 0.43 91
20260506185750 12 0.0 0.0 0.03 0.53 0.43 90
20260506184806 12 0.0 0.0 0.05 0.53 0.43 90
20260506183742 12 0.0 0.0 0.03 0.51 0.38 90
20260506182854 12 0.0 0.0 0.03 0.51 0.38 90
20260506181743 12 0.0 0.0 0.03 0.51 0.38 90
20260506180810 12 0.0 0.0 0.05 0.51 0.38 90
20260506175831 12 0.0 0.0 0.05 0.51 0.38 89
20260506174808 12 0.0 0.0 0.03 0.48 0.36 89
20260506173745 12 0.0 0.0 0.05 0.48 0.36 89
20260506172807 12 0.0 0.0 0.05 0.48 0.36 89
20260506171743 13 0.0 0.0 0.10 0.48 0.36 89
20260506170807 13 0.0 0.0 0.10 0.46 0.33 88
20260506165744 13 0.0 0.0 0.13 0.46 0.33 88
20260506164809 13 0.0 0.0 0.13 0.46 0.33 87
20260506163742 13 0.0 0.0 0.13 0.43 0.30 87
20260506162806 13 0.0 0.0 0.13 0.43 0.30 87
20260506161745 13 0.0 0.0 0.10 0.38 0.28 86
20260506160807 13 0.0 0.0 0.10 0.36 0.23 86
20260506155743 13 0.0 0.0 0.10 0.33 0.20 85
20260506154807 13 0.0 0.0 0.15 0.33 0.20 86
20260506153742 13 0.0 0.0 0.15 0.33 0.18 85
20260506152807 13 0.0 0.0 0.15 0.33 0.18 84
20260506151743 13 0.0 0.0 0.15 0.33 0.18 83
20260506150807 13 0.0 1.6 0.13 0.30 0.15 82
20260506145742 13 0.0 1.6 0.10 0.30 0.13 81
20260506144807 15 0.0 0.0 0.03 0.23 0.05 78
20260506143743 15 0.0 0.0 0.00 0.20 0.03 73
20260506142231 16 0.0 0.0 0.00 0.23 0.03 66
20260506141255 17 0.0 1.6 0.00 0.23 0.03 63
20260506140232 17 0.0 0.0 0.00 0.23 0.03 61
20260506135259 17 0.0 1.6 0.00 0.23 0.03 58
20260506134231 18 0.0 0.0 0.00 0.23 0.03 58
20260506133255 18 0.0 0.0 0.00 0.23 0.03 55
20260506132231 18 0.0 0.0 0.00 0.23 0.03 55
20260506131255 18 0.0 0.0 0.00 0.23 0.03 55
20260506130230 19 0.0 1.6 0.00 0.23 0.03 53
20260506125255 19 0.0 0.0 0.00 0.23 0.03 52
20260506124230 18 0.0 1.6 0.00 0.23 0.03 54
20260506123254 18 0.0 0.0 0.00 0.23 0.03 56
20260506122231 19 0.0 0.0 0.00 0.23 0.03 53
20260506121256 20 0.0 0.0 0.00 0.23 0.03 52
20260506120231 21 0.0 0.0 0.00 0.23 0.03 51
20260506115256 20 0.0 0.0 0.00 0.23 0.03 50
20260506114231 20 0.0 1.6 0.00 0.23 0.03 54
20260506113255 19 0.0 1.6 0.00 0.23 0.03 55
20260506112232 18 0.0 0.0 0.00 0.23 0.03 56
20260506111256 18 0.0 0.0 0.00 0.23 0.03 56
20260506110231 19 0.0 0.0 0.00 0.23 0.03 56
20260506105254 18 0.0 1.6 0.00 0.23 0.03 57
20260506104232 18 0.0 0.0 0.00 0.23 0.03 59
20260506103255 18 0.0 0.0 0.00 0.23 0.03 58
20260506102233 18 0.0 0.0 0.00 0.23 0.03 55
20260506101258 18 0.0 1.6 0.00 0.23 0.03 59
20260506100231 18 0.0 0.0 0.00 0.23 0.03 60